Flag for Canada Weather past 2 weeks in St. John's, Newfoundland and Labrador, Canada

Now
70 °F

Passing clouds.


Feels Like: 70 °F
Forecast: 67 / 77 °F
Wind: 15 mph from West

Location: St. John's

Current Time: Aug 1, 2014 at 3:31:51 AM

Latest Report: Aug 1, 2014 at 2:30 AM


Visibility: 15 mi

Pressure: 30.33 "Hg

Humidity: 94%

Dew point: 68 °F

Location of St. John'sLocation

Historic Weather in St. John's — Graph

°F

St. John's temperature yesterday

Maximum temperature yesterday: 84 °F (at 2:30 PM)
Minimum temperature yesterday: 66 °F (at 2:30 AM)
Average temperature yesterday: 74 °F

Past Weeks' High & Low Weather Summary

 TemperatureHumidityPressure
High84 °F (Jul 21, 2:30 PM)100% (Jul 17, 2:30 AM)30.34 "Hg (Jul 17, 2:30 AM)
Low48 °F (Jul 20, 1:30 AM)27% (Jul 21, 3:30 PM)29.66 "Hg (Jul 26, 2:30 AM)
Average68 °F78%30.06 "Hg
* Reported Jul 17 2:30 AM — Aug 1 2:30 AM, St. John's, Weather by CustomWeather, © 2014

Note: Actual official high and low records may vary slightly from our data, if they occured in-between our weather recording intervals... More about our weather records

Advertising

St. John's weather history for previous 24 hours

 ConditionsComfort  
Time TempWeatherWind HumidityBarometerVisibility
2:30 AM
Aug 1
70 °FPassing clouds.15 mph94%30.33 "Hg15 mi
1:30 AM70 °FPassing clouds.17 mph94%30.33 "Hg15 mi
12:30 AM70 °FPassing clouds.16 mph94%30.33 "Hg15 mi
11:30 PM
Jul 31
70 °FPassing clouds.17 mph94%30.33 "Hg15 mi
10:30 PM72 °FPassing clouds.16 mph88%30.34 "Hg15 mi
9:30 PM73 °FPassing clouds.14 mph83%30.33 "Hg15 mi
8:30 PM75 °FPassing clouds.9 mph83%30.32 "Hg15 mi
7:30 PM77 °FPassing clouds.14 mph79%30.32 "Hg15 mi
6:30 PM81 °FPassing clouds.12 mph66%30.31 "Hg15 mi
5:30 PM82 °FPassing clouds.16 mph62%30.30 "Hg15 mi
4:30 PM84 °FScattered clouds.15 mph62%30.30 "Hg15 mi
3:30 PM84 °FScattered clouds.15 mph62%30.30 "Hg15 mi
2:30 PM84 °FScattered clouds.13 mph62%30.30 "Hg15 mi
1:30 PM81 °FPartly sunny.17 mph70%30.31 "Hg15 mi
12:30 PM79 °FPartly sunny.9 mph74%30.32 "Hg15 mi
11:30 AM79 °FPartly sunny.9 mph74%30.32 "Hg15 mi
10:30 AM77 °FPartly sunny.12 mph74%30.31 "Hg15 mi
10:18 AM77 °FPartly sunny.15 mph74%30.31 "Hg15 mi
9:30 AM75 °FPassing clouds.13 mph78%30.30 "Hg15 mi
8:30 AM68 °FLow clouds.10 mph94%30.30 "Hg10 mi
7:30 AM66 °FFog.13 mph100%30.29 "Hg5 mi
7:20 AM66 °FFog.12 mph100%30.29 "Hg5 mi
6:30 AM66 °FDrizzle. Fog.16 mph100%30.28 "Hg1 mi
5:30 AM66 °FDrizzle. Fog.13 mph100%30.27 "Hg1 mi
4:30 AM66 °FMild.12 mph100%30.26 "Hg1 mi
3:30 AM66 °FDrizzle. Fog.16 mph100%30.24 "Hg1 mi
Weather by CustomWeather, © 2014

See weather overviewHow to use our weather pages